Location: Camp at the Woods
(43.2055°N, 93.0905°W)
Time: 10:31:32
(UTC+00:00)

BlueWalker 3 - Pass Details

Date: 16 April 2024
Orbit: 482 x 494 km, 53.2° (Epoch: 22 May)

Event Time Altitude Azimuth Distance (km) Brightness Sun altitude
Exits shadow 09:06:58 56° 352° (N) 597 2.4 -23.3°
Maximum altitude 09:07:28 63° 33° (NNE) 558 2.3 -23.2°
Drops below altitude 10° 09:11:15 10° 115° (ESE) 1,692 4.9 -22.7°
Sets 09:13:27 0° 119° (ESE) 2,569 5.8 -22.4°
